Voltar ao catálogo

STARLINK-5874

AtivoComunicaçõesSSO
NORAD 56353·PAYLOAD·🇺🇸 United States

Lançado Apr 27, 2023 de Vandenberg Space Force Base

Loading…

Próximas Passagens (próximas 24 horas)

TLE

AtualizadoSource: CelesTrak SupGP

Época: Sep 15, 2026, 02:13 UTC

1 56353C 23058AN  26258.09284722  .00547480  00000+0  29488-1 0  2584
2 56353  97.2849 252.2191 0001632  88.3597 349.0559 15.14623459    13

Acompanhe STARLINK-5874 em tempo real com AllMySat

Download on the App Store